Hourly Data Report for July 02, 2021

RANKIN INLET A
NUNAVUT
Current Station Operator: NAVCAN

62°48'38.000" N
92°06'53.000" W
32.30 m
2303405
71083
YRT

Download Data

Hourly Data (July 2021)
Hourly Data Report for July 2, 2021
TIME
LST
Temp Definition
°C
Dew Point Definition
°C
Rel Hum Definition
%
Precip. Amount Definition
mm

Wind Dir Definition
10's deg

Wind Spd Definition
km/h
Visibility Definition
km
Stn Press Definition
kPa
Hmdx Definition


Wind Chill Definition


Weather Definition


00:00 6.8 5.5 91   3 25 24.1 101.00     Mostly Cloudy
01:00 7.0 5.8 92   5 25 24.1 101.08     LegendNANA
02:00 6.5 5.1 91   4 24 24.1 101.19     LegendNANA
03:00 6.6 5.2 91   5 10 24.1 101.25     Mostly Cloudy
04:00 6.6 5.1 90   4 15 24.1 101.26     LegendNANA
05:00 7.1 5.6 90   3 16 24.1 101.36     LegendNANA
06:00 7.4 6.4 93   3 18 24.1 101.38     Mostly Cloudy
07:00 8.0 6.2 88   6 12 24.1 101.44     LegendNANA
08:00 7.4 4.8 83   16 12 48.3 101.45     LegendNANA
09:00 7.4 5.3 86   18 11 24.1 101.44     Mostly Cloudy
10:00 8.6 5.5 81   18 13 24.1 101.47     LegendNANA
11:00 7.3 4.6 83   16 18 24.1 101.47     LegendNANA
12:00 8.3 5.4 82   15 16 24.1 101.46     Mostly Cloudy
13:00 7.6 4.9 83   15 21 24.1 101.46     LegendNANA
14:00 9.8 5.7 75   15 20 24.1 101.42     LegendNANA
15:00 9.8 5.3 73   16 14 48.3 101.40     Mostly Cloudy
16:00 10.6 5.5 71   17 15 48.3 101.37     LegendNANA
17:00 9.9 4.9 71   17 16 48.3 101.30     LegendNANA
18:00 8.7 4.6 75   16 15 48.3 101.22     Mostly Cloudy
19:00 7.4 4.4 81   18 13 48.3 101.24     LegendNANA
20:00 6.5 4.4 86   19 16 24.1 101.25     LegendNANA
21:00 5.3 4.0 92   20 15 24.1 101.27     Rain
22:00 4.8 4.3 96   19 13 24.1 101.16     Rain
23:00 4.7 4.4 98   18 11 4.8 101.13     Rain, Fog

Notes on Data Quality.

Legend

  • E = Estimated
  • M = Missing
  • NA = Not Available*
  • [empty] = Indicates an unobserved value
Date modified: